Weather History for Fairfield, IA

Change the Weather History Date:

Friday, November 23, 2012

  Actual Average Record
Temperature  
Mean Temperature 30 °F -  
Max Temperature 39 °F 46 °F 65 °F (1974)
Min Temperature 21 °F 28 °F 7 °F (1970)
Degree Days  
Heating Degree Days 35    
Moisture  
Dew Point 17 °F    
Average Humidity 60    
Maximum Humidity 74    
Minimum Humidity 48    
Precipitation  
Precipitation 0.00 in - - ()
Sea Level Pressure  
Sea Level Pressure 30.27 in    
Wind  
Wind Speed 20 mph (WNW)    
Max Wind Speed 32 mph    
Max Gust Speed 40 mph    
Visibility 10 miles    
Events      
Averages and records for this station are not official NWS values.
T = Trace of Precipitation, MM = Missing Value Source: NWS Daily Summary

Daily Weather History Graph

Daily Weather History Graph

Search for Another Location

Airport:

Trip Planner

Search our weather history database for the weather conditions in past years. The results will help you decide how hot, cold, wet, or windy it might be!

Date:

Astronomy

Nov. 23, 2012 Rise Set
Actual Time 7:05 AM CST 4:43 PM CST
Civil Twilight 6:35 AM CST 5:13 PM CST
Nautical Twilight 6:01 AM CST 5:47 PM CST
Astronomical Twilight 5:28 AM CST 6:19 PM CST
Moon 1:59 PM CST (11/23) 2:22 AM CST (11/23)
Length of Visible Light 10h 38m
Length of Day
9h 37m
Waxing Gibbous, 80% of the Moon is Illuminated
Nov 23
Waxing Gibbous
Nov 28
Full
Dec 6
Last Quarter
Dec 13
New
Dec 19
First Quarter

Hourly Weather History & Observations

Time (CST) Temp. Windchill Dew Point Humidity Pressure Visibility Wind Dir Wind Speed Gust Speed Precip Events Conditions
12:15 AM 39.2 °F 30.5 °F 30.2 °F 70% 30.10 in 10.0 mi West 16.1 mph 21.9 mph N/A   Clear
12:55 AM 37.4 °F 27.2 °F 28.4 °F 70% 30.11 in 10.0 mi WNW 19.6 mph 24.2 mph N/A   Clear
1:15 AM 37.4 °F 27.8 °F 26.6 °F 65% 30.11 in 10.0 mi West 17.3 mph 29.9 mph N/A   Clear
1:35 AM 37.4 °F 27.2 °F 26.6 °F 65% 30.12 in 10.0 mi WNW 19.6 mph 24.2 mph N/A   Clear
1:55 AM 37.4 °F 28.5 °F 24.8 °F 60% 30.12 in 10.0 mi West 15.0 mph 23.0 mph N/A   Clear
2:15 AM 35.6 °F 25.2 °F 24.8 °F 65% 30.12 in 10.0 mi WNW 18.4 mph 24.2 mph N/A   Clear
2:35 AM 35.6 °F 26.2 °F 24.8 °F 65% 30.13 in 10.0 mi West 15.0 mph 19.6 mph N/A   Clear
2:55 AM 35.6 °F 23.7 °F 24.8 °F 65% 30.13 in 10.0 mi WNW 24.2 mph 29.9 mph N/A   Mostly Cloudy
3:15 AM 35.6 °F 24.0 °F 21.2 °F 56% 30.13 in 10.0 mi WNW 23.0 mph 32.2 mph N/A   Overcast
3:35 AM 35.6 °F 25.2 °F 21.2 °F 56% 30.13 in 10.0 mi WNW 18.4 mph 26.5 mph N/A   Overcast
3:55 AM 35.6 °F 24.8 °F 23.0 °F 60% 30.14 in 10.0 mi WNW 19.6 mph 28.8 mph N/A   Overcast
4:15 AM 35.6 °F 22.1 °F 21.2 °F 56% 30.14 in 10.0 mi WNW 32.2 mph 40.3 mph N/A   Overcast
4:35 AM 33.8 °F 20.8 °F 19.4 °F 56% 30.15 in 10.0 mi WNW 26.5 mph 35.7 mph N/A   Mostly Cloudy
4:55 AM 33.8 °F 20.5 °F 19.4 °F 56% 30.16 in 10.0 mi WNW 27.6 mph 36.8 mph N/A   Clear
5:15 AM 32.0 °F 19.2 °F 19.4 °F 60% 30.17 in 10.0 mi WNW 23.0 mph 36.8 mph N/A   Clear
5:35 AM 30.2 °F 16.2 °F 19.4 °F 64% 30.18 in 10.0 mi WNW 25.3 mph 28.8 mph N/A   Scattered Clouds
5:55 AM 32.0 °F 18.9 °F 19.4 °F 60% 30.19 in 10.0 mi WNW 24.2 mph 28.8 mph N/A   Overcast
6:15 AM 30.2 °F 16.5 °F 19.4 °F 64% 30.20 in 10.0 mi WNW 24.2 mph 36.8 mph N/A   Overcast
6:35 AM 30.2 °F 16.8 °F 19.4 °F 64% 30.21 in 10.0 mi WNW 23.0 mph 33.4 mph N/A   Overcast
6:55 AM 30.2 °F 18.5 °F 17.6 °F 60% 30.23 in 10.0 mi WNW 17.3 mph 31.1 mph N/A   Mostly Cloudy
7:15 AM 28.4 °F 14.1 °F 17.6 °F 64% 30.23 in 10.0 mi WNW 24.2 mph 28.8 mph N/A   Scattered Clouds
7:35 AM 28.4 °F 15.4 °F 17.6 °F 64% 30.24 in 10.0 mi WNW 19.6 mph 29.9 mph N/A   Clear
7:55 AM 28.4 °F 14.1 °F 15.8 °F 59% 30.25 in 10.0 mi WNW 24.2 mph 34.5 mph N/A   Clear
8:15 AM 28.4 °F 14.7 °F 17.6 °F 64% 30.26 in 10.0 mi West 21.9 mph 28.8 mph N/A   Clear
8:35 AM 28.4 °F 14.1 °F 15.8 °F 59% 30.26 in 10.0 mi WNW 24.2 mph 35.7 mph N/A   Clear
8:55 AM 28.4 °F 14.4 °F 15.8 °F 59% 30.27 in 10.0 mi WNW 23.0 mph 28.8 mph N/A   Scattered Clouds
9:15 AM 28.4 °F 14.4 °F 15.8 °F 59% 30.27 in 10.0 mi WNW 23.0 mph 32.2 mph N/A   Scattered Clouds
9:35 AM 28.4 °F 13.3 °F 15.8 °F 59% 30.28 in 10.0 mi WNW 27.6 mph 34.5 mph N/A   Clear
9:55 AM 30.2 °F 15.9 °F 15.8 °F 55% 30.29 in 10.0 mi WNW 26.5 mph 36.8 mph N/A   Scattered Clouds
10:15 AM 30.2 °F 16.5 °F 15.8 °F 55% 30.31 in 10.0 mi WNW 24.2 mph 32.2 mph N/A   Scattered Clouds
10:35 AM 30.2 °F 15.9 °F 15.8 °F 55% 30.31 in 10.0 mi NW 26.5 mph 34.5 mph N/A   Mostly Cloudy
10:55 AM 30.2 °F 16.5 °F 15.8 °F 55% 30.32 in 10.0 mi WNW 24.2 mph 32.2 mph N/A   Mostly Cloudy
11:15 AM 30.2 °F 15.9 °F 15.8 °F 55% 30.31 in 10.0 mi WNW 26.5 mph 33.4 mph N/A   Mostly Cloudy
11:35 AM 30.2 °F 16.5 °F 15.8 °F 55% 30.31 in 10.0 mi WNW 24.2 mph 32.2 mph N/A   Mostly Cloudy
11:55 AM 32.0 °F 18.6 °F 15.8 °F 51% 30.31 in 10.0 mi WNW 25.3 mph 32.2 mph N/A   Mostly Cloudy
12:15 PM 30.2 °F 17.1 °F 15.8 °F 55% 30.31 in 10.0 mi WNW 21.9 mph 32.2 mph N/A   Mostly Cloudy
12:35 PM 30.2 °F 16.8 °F 14.0 °F 51% 30.31 in 10.0 mi NW 23.0 mph 32.2 mph N/A   Scattered Clouds
12:55 PM 32.0 °F 18.4 °F 14.0 °F 48% 30.32 in 10.0 mi WNW 26.5 mph 33.4 mph N/A   Clear
1:15 PM 32.0 °F 18.4 °F 15.8 °F 51% 30.31 in 10.0 mi WNW 26.5 mph 33.4 mph N/A   Clear
1:35 PM 32.0 °F 19.2 °F 14.0 °F 48% 30.31 in 10.0 mi WNW 23.0 mph 33.4 mph N/A   Clear
1:55 PM 32.0 °F 19.5 °F 14.0 °F 48% 30.31 in 10.0 mi WNW 21.9 mph 29.9 mph N/A   Clear
2:15 PM 32.0 °F 19.2 °F 15.8 °F 51% 30.31 in 10.0 mi WNW 23.0 mph 29.9 mph N/A   Clear
2:35 PM 32.0 °F 18.4 °F 14.0 °F 48% 30.32 in 10.0 mi NW 26.5 mph 32.2 mph N/A   Clear
2:55 PM 32.0 °F 19.8 °F 14.0 °F 48% 30.32 in 10.0 mi WNW 20.7 mph 29.9 mph N/A   Clear
3:15 PM 32.0 °F 18.9 °F 14.0 °F 48% 30.33 in 10.0 mi NW 24.2 mph 31.1 mph N/A   Clear
3:35 PM 32.0 °F 20.1 °F 15.8 °F 51% 30.33 in 10.0 mi NW 19.6 mph 29.9 mph N/A   Clear
3:55 PM 30.2 °F 17.1 °F 14.0 °F 51% 30.34 in 10.0 mi NW 21.9 mph 29.9 mph N/A   Clear
4:15 PM 30.2 °F 18.1 °F 15.8 °F 55% 30.34 in 10.0 mi WNW 18.4 mph 26.5 mph N/A   Clear
4:35 PM 30.2 °F 18.1 °F 15.8 °F 55% 30.34 in 10.0 mi NW 18.4 mph 23.0 mph N/A   Clear
4:55 PM 28.4 °F 17.5 °F 15.8 °F 59% 30.34 in 10.0 mi WNW 13.8 mph - N/A   Clear
5:15 PM 28.4 °F 16.6 °F 15.8 °F 59% 30.34 in 10.0 mi WNW 16.1 mph 20.7 mph N/A   Clear
5:35 PM 28.4 °F 18.0 °F 15.8 °F 59% 30.35 in 10.0 mi WNW 12.7 mph - N/A   Clear
5:55 PM 28.4 °F 18.0 °F 15.8 °F 59% 30.35 in 10.0 mi WNW 12.7 mph - N/A   Clear
6:15 PM 26.6 °F 14.7 °F 15.8 °F 64% 30.35 in 10.0 mi WNW 15.0 mph - N/A   Clear
6:35 PM 26.6 °F 14.7 °F 15.8 °F 64% 30.36 in 10.0 mi WNW 15.0 mph 19.6 mph N/A   Clear
6:55 PM 26.6 °F 16.2 °F 15.8 °F 64% 30.36 in 10.0 mi WNW 11.5 mph - N/A   Clear
7:15 PM 26.6 °F 15.7 °F 15.8 °F 64% 30.36 in 10.0 mi WNW 12.7 mph - N/A   Clear
7:35 PM 26.6 °F 15.7 °F 15.8 °F 64% 30.36 in 10.0 mi WNW 12.7 mph 18.4 mph N/A   Clear
7:55 PM 26.6 °F 15.2 °F 15.8 °F 64% 30.35 in 10.0 mi WNW 13.8 mph - N/A   Clear
8:15 PM 26.6 °F 17.5 °F 15.8 °F 64% 30.36 in 10.0 mi WNW 9.2 mph 16.1 mph N/A   Clear
8:35 PM 24.8 °F 14.6 °F 15.8 °F 69% 30.35 in 10.0 mi WNW 10.4 mph - N/A   Clear
8:55 PM 24.8 °F 14.0 °F 14.0 °F 64% 30.36 in 10.0 mi WNW 11.5 mph - N/A   Clear
9:15 PM 24.8 °F 14.0 °F 14.0 °F 64% 30.36 in 10.0 mi WNW 11.5 mph - N/A   Clear
9:35 PM 24.8 °F 13.4 °F 14.0 °F 64% 30.35 in 10.0 mi WNW 12.7 mph - N/A   Clear
9:55 PM 23.0 °F 11.1 °F 14.0 °F 68% 30.35 in 10.0 mi NW 12.7 mph - N/A   Clear
10:15 PM 23.0 °F 11.7 °F 14.0 °F 68% 30.36 in 10.0 mi WNW 11.5 mph - N/A   Clear
10:35 PM 21.2 °F 10.1 °F 14.0 °F 74% 30.35 in 10.0 mi WNW 10.4 mph - N/A   Clear
10:55 PM 21.2 °F 9.5 °F 14.0 °F 74% 30.35 in 10.0 mi WNW 11.5 mph - N/A   Clear
11:15 PM 21.2 °F 10.1 °F 12.2 °F 68% 30.35 in 10.0 mi WNW 10.4 mph - N/A   Clear
11:35 PM 21.2 °F 10.9 °F 12.2 °F 68% 30.35 in 10.0 mi WNW 9.2 mph - N/A   Clear
11:55 PM 21.2 °F 11.7 °F 14.0 °F 74% 30.35 in 10.0 mi NW 8.1 mph - N/A   Clear